La Veta Pass, CO

2:01 PM MDT on March 23, 2017 (GMT -0600)
La Veta Pass

Weather History for KVTP - August, 2014

Change the Weather History Date:

Sunday, August 17, 2014

  Actual Average (KALS) Record (KALS)
Temperature  
Mean Temperature 62 °F -  
Max Temperature 73 °F 79 °F 91 °F (2002)
Min Temperature 50 °F 46 °F 33 °F (2009)
Degree Days  
Heating Degree Days 4    
Growing Degree Days 12 (Base 50)    
Moisture  
Dew Point 36 °F    
Average Humidity 46    
Maximum Humidity 62    
Minimum Humidity 23    
Precipitation  
Precipitation 0.00 in - - ()
Sea Level Pressure  
Sea Level Pressure 30.56 in    
Wind  
Wind Speed 5 mph (SSW)    
Max Wind Speed 14 mph    
Max Gust Speed 26 mph    
Visibility 10 miles    
Events Rain , Thunderstorm    
Averages and records for this station are not official NWS values.
T = Trace of Precipitation, MM = Missing Value Source: NWS Daily Summary

Daily Weather History Graph

Daily Weather History Graph

Search for Another Location

Airport or City:

Trip Planner

Search our weather history database for the weather conditions in past years. The results will help you decide how hot, cold, wet, or windy it might be!

Date:

Astronomy

Aug. 17, 2014 Rise Set
Actual Time 6:18 AM MDT 7:50 PM MDT
Civil Twilight 5:50 AM MDT 8:17 PM MDT
Nautical Twilight 5:17 AM MDT 8:51 PM MDT
Astronomical Twilight 4:42 AM MDT 9:26 PM MDT
Moon No Moon Rise 1:57 PM MDT (8/17)
Length of Visible Light 14h 27m
Length of Day
13h 31m
Waning Gibbous, 48% of the Moon is Illuminated
Aug 17
Waning Gibbous
Aug 25
New
Sep 2
First Quarter
Sep 8
Full
Sep 15
Last Quarter

Hourly Weather History & Observations

Time (MDT) Temp. Dew Point Humidity Pressure Visibility Wind Dir Wind Speed Gust Speed Precip Events Conditions
12:13 AM 55.4 °F 33.8 °F 44% 30.56 in 10.0 mi Calm Calm - N/A   Clear
12:33 AM 53.6 °F 35.6 °F 51% 30.56 in 10.0 mi WSW 3.5 mph - N/A   Clear
12:53 AM 53.6 °F 35.6 °F 51% 30.56 in 10.0 mi South 3.5 mph - N/A   Clear
1:13 AM 53.6 °F 35.6 °F 51% 30.55 in 10.0 mi SSW 8.1 mph - N/A   Clear
1:31 AM 53.6 °F 35.6 °F 51% 30.55 in 10.0 mi South 10.4 mph 16.1 mph N/A   Clear
1:52 AM 53.6 °F 35.6 °F 51% 30.54 in 10.0 mi South 9.2 mph - N/A   Clear
2:12 AM 53.6 °F 35.6 °F 51% 30.54 in 10.0 mi South 9.2 mph - N/A   Clear
2:31 AM 53.6 °F 35.6 °F 51% 30.54 in 10.0 mi South 10.4 mph - N/A   Clear
2:49 AM 53.6 °F 35.6 °F 51% 30.54 in 10.0 mi South 9.2 mph - N/A   Clear
3:12 AM 53.6 °F 35.6 °F 51% 30.54 in 10.0 mi South 8.1 mph - N/A   Clear
3:32 AM 53.6 °F 35.6 °F 51% 30.54 in 10.0 mi South 5.8 mph - N/A   Clear
3:52 AM 53.6 °F 37.4 °F 54% 30.54 in 10.0 mi SSW 6.9 mph - N/A   Clear
4:13 AM 53.6 °F 37.4 °F 54% 30.54 in 10.0 mi South 5.8 mph - N/A   Clear
4:32 AM 53.6 °F 37.4 °F 54% 30.54 in 10.0 mi South 4.6 mph - N/A   Clear
4:52 AM 51.8 °F 35.6 °F 54% 30.55 in 10.0 mi South 4.6 mph - N/A   Clear
5:12 AM 51.8 °F 37.4 °F 58% 30.54 in 10.0 mi South 5.8 mph - N/A   Clear
5:29 AM 51.8 °F 37.4 °F 58% 30.55 in 10.0 mi SSW 4.6 mph - N/A   Clear
5:53 AM 51.8 °F 35.6 °F 54% 30.56 in 10.0 mi South 4.6 mph - N/A   Clear
6:10 AM 51.8 °F 35.6 °F 54% 30.56 in 10.0 mi South 5.8 mph - N/A   Clear
6:33 AM 50.0 °F 35.6 °F 58% 30.57 in 10.0 mi SW 3.5 mph - N/A   Clear
6:53 AM 51.8 °F 37.4 °F 58% 30.58 in 10.0 mi SSE 3.5 mph - N/A   Clear
7:13 AM 51.8 °F 37.4 °F 58% 30.58 in 10.0 mi SW 3.5 mph - N/A   Clear
7:33 AM 50.0 °F 37.4 °F 62% 30.58 in 10.0 mi SW 4.6 mph - N/A   Clear
7:53 AM 53.6 °F 39.2 °F 58% 30.58 in 10.0 mi WSW 4.6 mph - N/A   Clear
8:13 AM 53.6 °F 39.2 °F 58% 30.58 in 10.0 mi WSW 5.8 mph - N/A   Clear
8:30 AM 53.6 °F 39.2 °F 58% 30.58 in 10.0 mi WSW 4.6 mph - N/A   Clear
8:52 AM 55.4 °F 39.2 °F 54% 30.59 in 10.0 mi WSW 5.8 mph - N/A   Clear
9:10 AM 57.2 °F 41.0 °F 55% 30.59 in 10.0 mi SW 4.6 mph - N/A   Clear
9:32 AM 59.0 °F 42.8 °F 55% 30.60 in 10.0 mi SW 4.6 mph - N/A   Clear
9:48 AM 60.8 °F 41.0 °F 48% 30.60 in 10.0 mi SW 5.8 mph - N/A   Clear
10:10 AM 62.6 °F 41.0 °F 45% 30.60 in 10.0 mi SW 5.8 mph - N/A   Clear
10:33 AM 62.6 °F 37.4 °F 39% 30.61 in 10.0 mi SSW 4.6 mph - N/A   Clear
10:53 AM 64.4 °F 39.2 °F 40% 30.60 in 10.0 mi WSW 4.6 mph - N/A   Clear
11:13 AM 64.4 °F 37.4 °F 37% 30.60 in 10.0 mi SSW 3.5 mph - N/A   Clear
11:31 AM 66.2 °F 37.4 °F 35% 30.60 in 10.0 mi West 4.6 mph - N/A   Clear
11:50 AM 68.0 °F 32.0 °F 26% 30.60 in 10.0 mi Calm Calm - N/A   Clear
12:13 PM 68.0 °F 33.8 °F 28% 30.59 in 10.0 mi SSW 3.5 mph - N/A   Clear
12:33 PM 69.8 °F 32.0 °F 25% 30.58 in 10.0 mi Calm Calm - N/A   Clear
12:53 PM 71.6 °F 33.8 °F 25% 30.58 in 10.0 mi Calm Calm - N/A Thunderstorm Clear
1:10 PM 73.4 °F 33.8 °F 23% 30.57 in 10.0 mi Calm Calm - N/A   Scattered Clouds
1:33 PM 66.2 °F 33.8 °F 30% 30.57 in 10.0 mi Calm Calm - N/A   Overcast
1:43 PM 64.4 °F 33.8 °F 32% 30.57 in 10.0 mi NE 3.5 mph - N/A   Overcast
2:12 PM 69.8 °F 37.4 °F 31% 30.56 in 10.0 mi NE 9.2 mph - N/A Rain Light Rain
2:32 PM 64.4 °F 35.6 °F 34% 30.56 in 10.0 mi NNE 5.8 mph - N/A   Overcast
2:53 PM 64.4 °F 37.4 °F 37% 30.56 in 10.0 mi Calm Calm - N/A   Mostly Cloudy
3:13 PM 69.8 °F 37.4 °F 31% 30.54 in 10.0 mi East 6.9 mph - N/A   Scattered Clouds
3:33 PM 64.4 °F 37.4 °F 37% 30.54 in 10.0 mi East 3.5 mph - N/A   Mostly Cloudy
4:12 PM 68.0 °F 35.6 °F 30% 30.53 in 10.0 mi Calm Calm - N/A   Mostly Cloudy
4:33 PM 64.4 °F 37.4 °F 37% 30.53 in 10.0 mi SSE 8.1 mph - N/A   Mostly Cloudy
4:53 PM 62.6 °F 35.6 °F 37% 30.52 in 10.0 mi South 8.1 mph 17.3 mph N/A   Overcast
5:11 PM 62.6 °F 32.0 °F 32% 30.51 in 10.0 mi South 4.6 mph 23.0 mph N/A   Mostly Cloudy
5:33 PM 62.6 °F 33.8 °F 34% 30.51 in 10.0 mi South 5.8 mph - N/A   Mostly Cloudy
5:52 PM 62.6 °F 33.8 °F 34% 30.52 in 10.0 mi South 4.6 mph - N/A   Mostly Cloudy
6:12 PM 60.8 °F 35.6 °F 39% 30.51 in 10.0 mi South 4.6 mph - N/A   Scattered Clouds
6:32 PM 60.8 °F 35.6 °F 39% 30.51 in 10.0 mi South 4.6 mph - N/A Thunderstorm Clear
6:52 PM 60.8 °F 35.6 °F 39% 30.51 in 10.0 mi South 6.9 mph - N/A   Clear
7:12 PM 62.6 °F 35.6 °F 37% 30.52 in 10.0 mi SSW 4.6 mph - N/A Thunderstorm Clear
7:33 PM 60.8 °F 35.6 °F 39% 30.55 in 10.0 mi NW 5.8 mph - N/A Thunderstorm Scattered Clouds
7:53 PM 53.6 °F 37.4 °F 54% 30.56 in 10.0 mi WNW 13.8 mph 26.5 mph N/A   Overcast
8:12 PM 53.6 °F 37.4 °F 54% 30.56 in 10.0 mi NE 9.2 mph - N/A   Mostly Cloudy
8:26 PM 51.8 °F 37.4 °F 58% 30.56 in 10.0 mi ENE 8.1 mph - N/A   Scattered Clouds
8:53 PM 53.6 °F 39.2 °F 58% 30.57 in 10.0 mi ENE 10.4 mph - N/A   Scattered Clouds
9:12 PM 51.8 °F 39.2 °F 62% 30.56 in 10.0 mi East 9.2 mph - N/A   Mostly Cloudy
9:31 PM 50.0 °F 37.4 °F 62% 30.55 in 10.0 mi SSE 8.1 mph - N/A   Scattered Clouds
9:53 PM 51.8 °F 37.4 °F 58% 30.54 in 10.0 mi South 6.9 mph - N/A   Scattered Clouds
10:13 PM 53.6 °F 35.6 °F 51% 30.54 in 10.0 mi South 5.8 mph - N/A   Clear
10:30 PM 53.6 °F 35.6 °F 51% 30.54 in 10.0 mi South 3.5 mph - N/A   Clear
10:53 PM 53.6 °F 33.8 °F 47% 30.52 in 10.0 mi South 10.4 mph - N/A   Scattered Clouds
11:11 PM 53.6 °F 35.6 °F 51% 30.52 in 10.0 mi South 6.9 mph - N/A   Scattered Clouds
11:32 PM 53.6 °F 37.4 °F 54% 30.52 in 10.0 mi SW 4.6 mph - N/A   Clear
11:51 PM 53.6 °F 35.6 °F 51% 30.51 in 10.0 mi SW 5.8 mph - N/A   Clear